PDT,Max TemperatureF,Mean TemperatureF,Min TemperatureF,Max Dew PointF,MeanDew PointF,Min DewpointF,Max Humidity, Mean Humidity, Min Humidity, Max Sea Level PressureIn, Mean Sea Level PressureIn, Min Sea Level PressureIn, Max VisibilityMiles, Mean VisibilityMiles, Min VisibilityMiles, Max Wind SpeedMPH, Mean Wind SpeedMPH, Max Gust SpeedMPH,PrecipitationIn, CloudCover, Events, WindDirDegrees
2011-10-1,81,68,54,50,47,44,83,57,30,29.92,29.81,29.71,10,10,10,22,6,26,T,1,,239
2011-10-2,75,63,50,54,49,46,83,61,38,29.97,29.89,29.79,10,10,9,10,2,13,T,2,,349
2011-10-3,72,62,51,49,47,45,77,59,41,29.84,29.80,29.77,10,10,10,9,3,10,0.00,0,,202
2011-10-4,66,60,53,52,48,43,93,69,44,29.78,29.67,29.47,10,10,10,15,5,18,0.09,5,Rain,187
2011-10-5,59,55,51,52,49,47,93,83,72,29.67,29.53,29.45,10,10,10,17,2,23,0.05,8,Rain,218
2011-10-6,61,56,50,49,46,42,86,72,57,29.91,29.81,29.68,10,10,10,14,5,16,0.05,8,Rain,217
2011-10-7,72,58,44,45,42,41,77,56,35,30.18,30.02,29.91,10,10,10,16,9,23,0.00,4,,245
2011-10-8,70,53,36,47,41,36,100,69,37,30.25,30.19,30.08,10,9,0,9,2,13,0.00,0,,12
2011-10-9,68,54,40,54,46,38,96,72,48,30.09,29.98,29.83,10,10,8,9,1,10,0.03,3,,130
2011-10-10,64,57,50,55,51,44,96,76,55,29.81,29.67,29.59,10,9,2,17,5,24,0.13,4,Rain,147
2011-10-11,70,62,54,50,44,41,77,57,37,30.07,29.86,29.65,10,10,10,31,15,39,0.01,3,Rain,224
2011-10-12,67,58,48,44,42,38,80,59,37,30.22,30.17,30.12,10,10,10,21,10,26,T,3,,238
2011-10-13,60,53,45,46,42,39,86,65,44,30.21,30.16,30.07,10,10,10,7,2,8,T,3,,338
2011-10-14,63,57,50,47,44,39,86,65,43,30.06,30.02,29.97,10,9,2,12,2,14,0.02,6,Rain,336
2011-10-15,62,55,48,49,47,45,93,73,52,30.11,30.07,30.00,10,10,6,9,3,12,0.06,4,Rain,346
2011-10-16,63,53,42,50,48,41,96,78,60,30.27,30.13,30.04,10,9,5,9,2,12,0.13,4,Rain,197
2011-10-17,66,52,37,48,42,36,100,74,48,30.41,30.36,30.28,10,8,2,8,2,8,0.00,0,,342
2011-10-18,66,52,37,45,41,36,92,69,45,30.39,30.26,30.05,10,9,6,10,4,14,0.00,0,,341
2011-10-19,69,53,37,46,42,36,92,67,42,30.04,29.99,29.94,10,8,5,18,3,25,0.00,0,,200
2011-10-20,68,60,51,53,47,43,93,68,42,30.08,30.05,30.02,10,10,10,12,5,14,0.01,3,Rain,194
2011-10-21,68,56,43,50,46,42,100,71,42,30.19,30.14,30.06,10,10,10,21,6,24,0.00,1,,238
2011-10-22,74,64,54,50,49,48,77,61,44,30.21,30.14,30.10,10,10,10,38,12,45,0.00,1,,230
2011-10-23,68,56,43,50,46,42,92,69,45,30.16,30.09,30.00,10,10,10,15,3,18,T,2,,312
2011-10-24,63,49,34,36,31,27,76,51,25,30.31,30.18,30.02,10,9,6,16,9,20,0.00,1,,259
2011-10-25,59,43,26,34,29,25,92,62,31,30.45,30.41,30.32,10,10,10,9,1,12,0.00,0,,2
2011-10-26,54,39,23,32,27,21,92,64,35,30.45,30.31,30.19,10,10,8,13,2,14,0.00,2,,155
2011-10-27,57,41,25,34,30,23,92,65,38,30.34,30.28,30.24,10,9,1,8,3,13,0.00,0,,350
2011-10-28,57,43,28,41,33,26,92,71,50,30.25,30.09,29.98,10,10,10,17,5,22,0.01,1,Rain,156
2011-10-29,63,50,36,44,38,34,92,66,39,30.28,30.21,30.01,10,10,10,13,4,14,0.00,0,,102
2011-10-30,64,47,30,49,38,29,96,71,46,30.23,30.10,29.99,10,10,10,17,3,21,T,3,,317
2011-10-31,62,50,38,43,31,26,74,51,27,30.36,30.23,30.05,10,10,10,16,7,20,0.00,0,,252